AT&T T-16

Last updated on Sun Jun 21 2026 00:03:08 GMT+0000 (Coordinated Universal Time)

1 44333U 19034A 26171.35461541 -.00000120 00000+0 00000+0 0 9992 2 44333 0.0207 65.5499 0000650 225.8469 3.9721 1.00270065 25665
UTC large
Height (km)
Speed (km/s)
/
Latitude / Longitude
Inclination (degrees)
Orbital Period (minutes)
Azimuth
Elevation
Range (km)
Doppler Factor

Next 0 passes for location: London (51.5072 / 0.1276)

No passes found over London.
AT&T T-16